Regional Weather Roundup
Issued by NWS Cleveland, OH

Home | Current Version | Previous Version | Graphics & Text | Print | Product List | Glossary On
Versions: 1 2 3 4 5 6 7 8 9 10 11 12 13 14 15 16 17 18 19 20 21 22 23 24 25 26 27 28 29 30 31 32 33 34 35 36 37 38 39 40 41 42 43 44 45 46 47 48 49 50
000
ASUS41 KCLE 060202
RWRCLE
OHIO REGIONAL WEATHER ROUNDUP
NATIONAL WEATHER SERVICE CLEVELAND, OH
1000 PM EDT SUN JUL 05 2015

NOTE: "FAIR" INDICATES FEW OR NO CLOUDS BELOW 12,000 FEET WITH NO
SIGNIFICANT WEATHER AND/OR OBSTRUCTIONS TO VISIBILITY.

OHZ001>008-015>018-024>027-034-035-043-044-060300-
   NORTHWEST OHIO

CITY           SKY/WX    TMP DP  RH WIND       PRES   REMARKS
DEFIANCE       MOCLDY    70  61  73 E3        30.07S
FINDLAY        MOCLDY    73  62  68 E6        30.07F
TOLEDO EXPRESS MOCLDY    68  56  65 E3        30.07S
TOLEDO EXEC    MOCLDY    68  60  75 E3        30.09S
LIMA           MOCLDY    68  64  87 CALM      30.08S
$$

OHZ009>014-019>023-028>033-038-089-060300-
   NORTHEAST OHIO

CITY           SKY/WX    TMP DP  RH WIND       PRES   REMARKS
CLE-HOPKINS    MOCLDY    70  62  76 CALM      30.11S
CLE-LAKEFRONT  MOCLDY    70  66  87 NE7       30.08R
CUY CO. ARPT   MOCLDY    70  64  83 E5        30.11R
LORAIN-ELYRIA  PTCLDY    64  61  90 N3        30.10R
ASHTABULA      MOCLDY    65  61  87 CALM      30.13R
AKRON-CANTON   CLOUDY    70  58  65 NE3       30.11R
WOOSTER        MOCLDY    65  62  90 CALM      30.10S
MANSFIELD      MOCLDY    67  61  81 CALM      30.10F
YOUNGSTOWN     CLOUDY    63  59  87 E5        30.11S
$$

OHZ042-051>053-060>062-070>072-077>081-060300-
  SOUTHWEST OHIO

CITY           SKY/WX    TMP DP  RH WIND       PRES   REMARKS
CINC-COVINGTON MOCLDY    72  61  68 NE3       30.07F
CINC-LUNKEN    PTCLDY    67  65  93 CALM      30.07S
HAMILTON       PTCLDY    67  64  90 CALM      30.08S
DAYTON         CLOUDY    71  63  75 CALM      30.10R
WRIGHT-PAT AFB CLOUDY    71  65  80 W3        30.08R
DAYTON GENERAL MOCLDY    68  61  78 CALM      30.09R
WILMINGTON     MOCLDY    69  64  84 CALM      30.09R
$$

OHZ036-037-039>041-045>050-054>059-063>069-073>076-082>088-060300-
  CENTRAL AND SOUTHEAST OHIO

CITY           SKY/WX    TMP DP  RH WIND       PRES   REMARKS
COLUMBUS       CLOUDY    71  63  75 NE5       30.07R
OSU AIRPORT    PTCLDY    70  61  73 NE5       30.08R
BOLTON FIELD   NOT AVBL
RICKENBACK AFB NOT AVBL
NEWARK         CLOUDY    71  64  78 N3        30.07S
MARION         PTCLDY    68  63  84 CALM      30.09S
LANCASTER      PTCLDY    70  65  84 NW3       30.08R
ZANESVILLE     NOT AVBL
NEW PHILLY     CLOUDY    71  62  73 CALM      30.09S
$$


USA.gov is the U.S. government's official web portal to all federal, state and local government web resources and services.